Flag for U.S.A. Weather past 2 weeks in Honolulu, Hawaii, U.S.A.

Now
77 °F

Passing clouds.


Feels Like: 79 °F
Forecast: 72 / 85 °F
Wind: 6 mph from Northeast

Location: Honolulu International Airport

Current Time: Jul 26, 2014 at 3:44:23 AM

Latest Report: Jul 26, 2014 at 2:53 AM


Visibility: 10 mi

Pressure: 29.94 "Hg

Humidity: 71%

Dew point: 67 °F

Location of HonoluluLocation

Historic Weather in Honolulu — Graph

°F

Honolulu temperature yesterday

Maximum temperature yesterday: 87 °F (at 12:53 PM)
Minimum temperature yesterday: 77 °F (at 3:53 AM)
Average temperature yesterday: 81 °F

Past Weeks' High & Low Weather Summary

 TemperatureHumidityPressure
High90 °F (Jul 13, 12:53 PM)97% (Jul 19, 11:53 PM)30.09 "Hg (Jul 19, 11:53 PM)
Low73 °F (Jul 20, 3:53 AM)42% (Jul 13, 12:53 PM)29.90 "Hg (Jul 20, 2:53 AM)
Average81 °F64%30.00 "Hg
* Reported Jul 11 1:53 AM — Jul 26 1:53 AM, Honolulu, Weather by CustomWeather, © 2014

Note: Actual official high and low records may vary slightly from our data, if they occured in-between our weather recording intervals... More about our weather records

Advertising

Honolulu weather history for previous 24 hours

 ConditionsComfort  
Time TempWeatherWind HumidityBarometerVisibility
1:53 AM
Jul 26
78 °FPassing clouds.6 mph69%29.95 "Hg10 mi
12:53 AM78 °FPassing clouds.7 mph66%29.97 "Hg10 mi
11:53 PM
Jul 25
78 °FPassing clouds.10 mph69%29.98 "Hg10 mi
10:53 PM79 °FPassing clouds.10 mph67%29.99 "Hg10 mi
9:53 PM79 °FPassing clouds.9 mph62%29.98 "Hg10 mi
8:53 PM79 °FPassing clouds.10 mph65%29.97 "Hg10 mi
7:53 PM80 °FPassing clouds.7 mph62%29.96 "Hg10 mi
6:53 PM81 °FScattered clouds.15 mph60%29.94 "Hg10 mi
5:53 PM83 °FBroken clouds.9 mph57%29.93 "Hg10 mi
4:53 PM85 °FBroken clouds.12 mph53%29.93 "Hg10 mi
3:53 PM86 °FBroken clouds.10 mph51%29.93 "Hg10 mi
2:53 PM87 °FScattered clouds.13 mph48%29.94 "Hg10 mi
1:53 PM86 °FBroken clouds.15 mph51%29.96 "Hg10 mi
12:53 PM87 °FScattered clouds.14 mph48%29.97 "Hg10 mi
11:53 AM86 °FScattered clouds.13 mph49%29.98 "Hg10 mi
10:53 AM86 °FScattered clouds.14 mph49%30.00 "Hg10 mi
9:53 AM83 °FScattered clouds.9 mph57%30.01 "Hg10 mi
8:53 AM81 °FBroken clouds.16 mph62%30.01 "Hg10 mi
7:53 AM80 °FScattered clouds.13 mph62%30.00 "Hg10 mi
6:53 AM78 °FScattered clouds.10 mph64%29.99 "Hg10 mi
5:53 AM77 °FPassing clouds.8 mph66%29.98 "Hg10 mi
4:53 AM77 °FPassing clouds.7 mph66%29.97 "Hg10 mi
3:53 AM77 °FPassing clouds.15 mph69%29.97 "Hg10 mi
Weather by CustomWeather, © 2014

See weather overviewHow to use our weather pages